TIANLIAN 1-04

Last updated on Sat Nov 15 2025 00:02:50 GMT+0000 (Coordinated Universal Time)

1 41869U 16072A 25318.30129372 .00000033 00000+0 00000+0 0 9994 2 41869 0.3107 82.5928 0046448 95.6611 160.7380 1.00268300 33145
UTC large
Height (km)
Speed (km/s)
/
Latitude / Longitude
Inclination (degrees)
Orbital Period (minutes)
Azimuth
Elevation
Range (km)
Doppler Factor

Next 0 passes for location: London (51.5072 / 0.1276)

Sorry there are no passes over London.